Time,TemperatureF,DewpointF,PressureIn,WindDirection,WindDirectionDegrees,WindSpeedMPH,WindSpeedGustMPH,Humidity,HourlyPrecipIn,Conditions,Clouds,dailyrainin,SoftwareType,DateUTC
2013-06-11 00:14:00,66.6,60.2,29.72,SSE,157,4.2,-999.0,80,-99.99,,,0.00,Acu-Link.com,2013-06-11 05:14:00,
2013-06-11 00:30:00,66.6,60.2,29.72,ESE,112,3.7,-999.0,80,-99.99,,,0.00,Acu-Link.com,2013-06-11 05:30:00,
2013-06-11 00:45:00,66.2,60.2,29.73,SE,135,3.2,-999.0,81,-99.99,,,0.00,Acu-Link.com,2013-06-11 05:45:00,
2013-06-11 01:00:00,66.0,60.0,29.73,SE,135,3.7,-999.0,81,-99.99,,,0.00,Acu-Link.com,2013-06-11 06:00:00,
2013-06-11 01:16:00,66.0,60.3,29.72,ESE,112,3.7,-999.0,82,-99.99,,,0.00,Acu-Link.com,2013-06-11 06:16:00,
2013-06-11 01:31:00,66.0,60.3,29.72,ESE,112,3.2,-999.0,82,-99.99,,,0.00,Acu-Link.com,2013-06-11 06:31:00,
2013-06-11 01:46:00,66.2,60.5,29.75,South,180,3.2,-999.0,82,-99.99,,,0.00,Acu-Link.com,2013-06-11 06:46:00,
2013-06-11 02:02:00,66.2,60.5,29.73,ESE,112,3.7,-999.0,82,-99.99,,,0.00,Acu-Link.com,2013-06-11 07:02:00,
2013-06-11 02:17:00,65.5,60.2,29.73,ESE,112,2.7,-999.0,83,-99.99,,,0.00,Acu-Link.com,2013-06-11 07:17:00,
2013-06-11 02:32:00,65.3,60.3,29.71,ESE,112,5.8,-999.0,84,-99.99,,,0.00,Acu-Link.com,2013-06-11 07:32:00,
2013-06-11 02:48:00,65.1,60.1,29.70,East,90,3.2,-999.0,84,-99.99,,,0.00,Acu-Link.com,2013-06-11 07:48:00,
2013-06-11 03:03:00,64.6,60.0,29.69,East,90,2.7,-999.0,85,-99.99,,,0.00,Acu-Link.com,2013-06-11 08:03:00,
2013-06-11 03:18:00,64.6,60.3,29.69,ESE,112,2.7,-999.0,86,-99.99,,,0.00,Acu-Link.com,2013-06-11 08:18:00,
2013-06-11 03:34:00,64.2,60.2,29.67,ENE,67,5.8,-999.0,87,-99.99,,,0.00,Acu-Link.com,2013-06-11 08:34:00,
2013-06-11 03:49:00,64.2,60.2,29.67,ESE,112,4.2,-999.0,87,-99.99,,,0.00,Acu-Link.com,2013-06-11 08:49:00,
2013-06-11 04:04:00,64.4,60.1,29.68,East,90,4.2,-999.0,86,-99.99,,,0.00,Acu-Link.com,2013-06-11 09:04:00,
2013-06-11 04:19:00,63.9,60.0,29.69,SSE,157,3.2,-999.0,87,-99.99,,,0.00,Acu-Link.com,2013-06-11 09:19:00,
2013-06-11 04:34:00,63.5,59.6,29.69,ENE,67,2.7,-999.0,87,-99.99,,,0.00,Acu-Link.com,2013-06-11 09:34:00,
2013-06-11 04:49:00,63.3,59.7,29.70,ESE,112,2.2,-999.0,88,-99.99,,,0.00,Acu-Link.com,2013-06-11 09:49:00,
2013-06-11 05:05:00,63.1,59.8,29.71,NNE,22,1.7,-999.0,89,-99.99,,,0.00,Acu-Link.com,2013-06-11 10:05:00,
2013-06-11 05:20:00,63.1,59.8,29.73,North,0,2.2,-999.0,89,-99.99,,,0.00,Acu-Link.com,2013-06-11 10:20:00,
2013-06-11 05:35:00,63.3,60.0,29.72,NE,45,3.2,-999.0,89,-99.99,,,0.00,Acu-Link.com,2013-06-11 10:35:00,
2013-06-11 05:50:00,63.5,60.2,29.72,NE,45,4.2,-999.0,89,-99.99,,,0.00,Acu-Link.com,2013-06-11 10:50:00,
2013-06-11 06:05:00,63.3,60.0,29.74,NNE,22,6.8,-999.0,89,-99.99,,,0.00,Acu-Link.com,2013-06-11 11:05:00,
2013-06-11 06:20:00,63.5,60.2,29.73,NE,45,5.8,-999.0,89,-99.99,,,0.00,Acu-Link.com,2013-06-11 11:20:00,
2013-06-11 06:35:00,63.9,60.0,29.73,ENE,67,5.3,-999.0,87,-99.99,,,0.00,Acu-Link.com,2013-06-11 11:35:00,
2013-06-11 06:50:00,66.0,60.7,29.74,NE,45,5.8,-999.0,83,-99.99,,,0.00,Acu-Link.com,2013-06-11 11:50:00,
2013-06-11 07:06:00,66.6,60.9,29.74,ENE,67,3.2,-999.0,82,-99.99,,,0.00,Acu-Link.com,2013-06-11 12:06:00,
2013-06-11 07:21:00,67.8,61.4,29.73,NE,45,5.8,-999.0,80,-99.99,,,0.00,Acu-Link.com,2013-06-11 12:21:00,
2013-06-11 07:51:00,69.8,62.3,29.73,ENE,67,5.3,-999.0,77,-99.99,,,0.00,Acu-Link.com,2013-06-11 12:51:00,
2013-06-11 08:07:00,70.3,62.4,29.73,NNE,22,7.3,-999.0,76,-99.99,,,0.00,Acu-Link.com,2013-06-11 13:07:00,
2013-06-11 08:22:00,71.1,63.1,29.73,ENE,67,9.4,-999.0,76,-99.99,,,0.00,Acu-Link.com,2013-06-11 13:22:00,
2013-06-11 08:37:00,72.0,63.6,29.73,NNE,22,6.8,-999.0,75,-99.99,,,0.00,Acu-Link.com,2013-06-11 13:37:00,
2013-06-11 08:52:00,73.2,64.0,29.73,NE,45,10.4,-999.0,73,-99.99,,,0.00,Acu-Link.com,2013-06-11 13:52:00,
2013-06-11 09:07:00,74.7,64.2,29.73,NE,45,9.9,-999.0,70,-99.99,,,0.00,Acu-Link.com,2013-06-11 14:07:00,
2013-06-11 09:23:00,76.1,64.8,29.74,ENE,67,6.3,-999.0,68,-99.99,,,0.00,Acu-Link.com,2013-06-11 14:23:00,
2013-06-11 09:38:00,77.2,64.5,29.72,NNW,337,11.9,-999.0,65,-99.99,,,0.00,Acu-Link.com,2013-06-11 14:38:00,
2013-06-11 09:53:00,78.8,64.7,29.73,NE,45,13.0,-999.0,62,-99.99,,,0.00,Acu-Link.com,2013-06-11 14:53:00,
2013-06-11 10:08:00,79.9,64.8,29.73,East,90,11.4,-999.0,60,-99.99,,,0.00,Acu-Link.com,2013-06-11 15:08:00,
2013-06-11 10:23:00,77.9,62.4,29.76,East,90,10.9,-999.0,59,-99.99,,,0.00,Acu-Link.com,2013-06-11 15:23:00,
2013-06-11 10:38:00,78.6,63.5,29.75,NE,45,12.5,-999.0,60,-99.99,,,0.00,Acu-Link.com,2013-06-11 15:38:00,
2013-06-11 10:53:00,77.4,62.9,29.76,NNE,22,11.9,-999.0,61,-99.99,,,0.00,Acu-Link.com,2013-06-11 15:53:00,
2013-06-11 11:08:00,77.9,63.8,29.76,ENE,67,13.0,-999.0,62,-99.99,,,0.00,Acu-Link.com,2013-06-11 16:08:00,
2013-06-11 11:23:00,77.0,63.0,29.77,ENE,67,4.7,-999.0,62,-99.99,,,0.00,Acu-Link.com,2013-06-11 16:23:00,
2013-06-11 11:38:00,76.6,62.6,29.78,NE,45,8.3,-999.0,62,-99.99,,,0.00,Acu-Link.com,2013-06-11 16:38:00,
2013-06-11 11:53:00,76.8,62.8,29.74,ENE,67,7.3,-999.0,62,-99.99,,,0.00,Acu-Link.com,2013-06-11 16:53:00,
2013-06-11 12:08:00,79.0,64.4,29.70,ESE,112,7.3,-999.0,61,-99.99,,,0.00,Acu-Link.com,2013-06-11 17:08:00,
2013-06-11 12:23:00,80.8,64.6,29.69,SSE,157,10.9,-999.0,58,-99.99,,,0.00,Acu-Link.com,2013-06-11 17:23:00,
2013-06-11 12:39:00,79.9,64.8,29.70,ENE,67,6.8,-999.0,60,-99.99,,,0.00,Acu-Link.com,2013-06-11 17:39:00,
2013-06-11 12:54:00,81.0,64.8,29.71,ESE,112,8.3,-999.0,58,-99.99,,,0.00,Acu-Link.com,2013-06-11 17:54:00,
2013-06-11 13:09:00,82.8,65.5,29.71,ESE,112,8.3,-999.0,56,-99.99,,,0.00,Acu-Link.com,2013-06-11 18:09:00,
2013-06-11 13:24:00,82.6,64.8,29.71,East,90,6.3,-999.0,55,-99.99,,,0.00,Acu-Link.com,2013-06-11 18:24:00,
2013-06-11 13:39:00,83.1,65.2,29.71,ESE,112,10.4,-999.0,55,-99.99,,,0.00,Acu-Link.com,2013-06-11 18:39:00,
2013-06-11 13:54:00,83.8,65.9,29.71,ESE,112,7.3,-999.0,55,-99.99,,,0.00,Acu-Link.com,2013-06-11 18:54:00,
2013-06-11 14:09:00,84.2,66.8,29.71,SE,135,7.3,-999.0,56,-99.99,,,0.00,Acu-Link.com,2013-06-11 19:09:00,
2013-06-11 14:24:00,84.6,67.1,29.70,SE,135,5.3,-999.0,56,-99.99,,,0.00,Acu-Link.com,2013-06-11 19:24:00,
2013-06-11 14:39:00,85.5,66.9,29.70,SE,135,11.9,-999.0,54,-99.99,,,0.00,Acu-Link.com,2013-06-11 19:39:00,
2013-06-11 14:55:00,85.3,66.7,29.69,ESE,112,7.8,-999.0,54,-99.99,,,0.00,Acu-Link.com,2013-06-11 19:55:00,
2013-06-11 15:10:00,85.1,67.1,29.70,ESE,112,7.3,-999.0,55,-99.99,,,0.00,Acu-Link.com,2013-06-11 20:10:00,
2013-06-11 15:25:00,86.4,67.8,29.69,East,90,4.2,-999.0,54,-99.99,,,0.00,Acu-Link.com,2013-06-11 20:25:00,
2013-06-11 15:40:00,86.9,68.2,29.70,NE,45,3.7,-999.0,54,-99.99,,,0.00,Acu-Link.com,2013-06-11 20:40:00,
2013-06-11 15:55:00,87.6,67.2,29.70,East,90,9.4,-999.0,51,-99.99,,,0.00,Acu-Link.com,2013-06-11 20:55:00,
2013-06-11 16:10:00,87.3,66.4,29.68,ENE,67,5.8,-999.0,50,-99.99,,,0.00,Acu-Link.com,2013-06-11 21:10:00,
2013-06-11 16:25:00,88.2,65.4,29.69,East,90,7.3,-999.0,47,-99.99,,,0.00,Acu-Link.com,2013-06-11 21:25:00,
2013-06-11 16:40:00,88.7,62.6,29.67,SE,135,10.4,-999.0,42,-99.99,,,0.00,Acu-Link.com,2013-06-11 21:40:00,
2013-06-11 16:55:00,89.1,63.0,29.67,ESE,112,10.4,-999.0,42,-99.99,,,0.00,Acu-Link.com,2013-06-11 21:55:00,
2013-06-11 17:10:00,88.9,61.4,29.66,NE,45,9.4,-999.0,40,-99.99,,,0.00,Acu-Link.com,2013-06-11 22:10:00,
2013-06-11 17:25:00,89.4,62.6,29.67,ESE,112,7.3,-999.0,41,-99.99,,,0.00,Acu-Link.com,2013-06-11 22:25:00,
2013-06-11 17:40:00,89.4,62.6,29.67,SE,135,10.9,-999.0,41,-99.99,,,0.00,Acu-Link.com,2013-06-11 22:40:00,
2013-06-11 17:55:00,88.7,61.9,29.66,ESE,112,7.8,-999.0,41,-99.99,,,0.00,Acu-Link.com,2013-06-11 22:55:00,
2013-06-11 18:11:00,87.4,62.1,29.66,East,90,4.2,-999.0,43,-99.99,,,0.00,Acu-Link.com,2013-06-11 23:11:00,
2013-06-11 18:26:00,85.8,65.0,29.63,SSE,157,11.9,-999.0,50,-99.99,,,0.00,Acu-Link.com,2013-06-11 23:26:00,
2013-06-11 18:41:00,86.7,66.4,29.61,ESE,112,10.4,-999.0,51,-99.99,,,0.00,Acu-Link.com,2013-06-11 23:41:00,
2013-06-11 18:56:00,87.4,66.4,29.64,NE,45,5.3,-999.0,50,-99.99,,,0.00,Acu-Link.com,2013-06-11 23:56:00,
2013-06-11 19:11:00,86.4,65.5,29.64,NE,45,4.2,-999.0,50,-99.99,,,0.00,Acu-Link.com,2013-06-12 00:11:00,
2013-06-11 19:26:00,86.5,66.2,29.64,NE,45,7.3,-999.0,51,-99.99,,,0.00,Acu-Link.com,2013-06-12 00:26:00,
2013-06-11 19:56:00,85.3,66.2,29.65,ESE,112,5.3,-999.0,53,-99.99,,,0.00,Acu-Link.com,2013-06-12 00:56:00,
2013-06-11 20:11:00,84.4,65.4,29.65,NNE,22,5.3,-999.0,53,-99.99,,,0.00,Acu-Link.com,2013-06-12 01:11:00,
2013-06-11 20:27:00,83.5,65.1,29.64,NE,45,6.8,-999.0,54,-99.99,,,0.00,Acu-Link.com,2013-06-12 01:27:00,
2013-06-11 20:42:00,82.6,65.3,29.64,East,90,10.9,-999.0,56,-99.99,,,0.00,Acu-Link.com,2013-06-12 01:42:00,
2013-06-11 20:57:00,79.9,65.2,29.65,NE,45,10.4,-999.0,61,-99.99,,,0.00,Acu-Link.com,2013-06-12 01:57:00,
2013-06-11 21:12:00,78.6,64.9,29.66,ENE,67,7.8,-999.0,63,-99.99,,,0.00,Acu-Link.com,2013-06-12 02:12:00,
2013-06-11 21:27:00,78.1,64.5,29.67,ENE,67,15.0,-999.0,63,-99.99,,,0.00,Acu-Link.com,2013-06-12 02:27:00,
2013-06-11 21:42:00,77.7,64.1,29.67,SE,135,10.4,-999.0,63,-99.99,,,0.00,Acu-Link.com,2013-06-12 02:42:00,
2013-06-11 21:57:00,77.0,63.4,29.67,NE,45,14.5,-999.0,63,-99.99,,,0.00,Acu-Link.com,2013-06-12 02:57:00,
2013-06-11 22:12:00,76.1,63.0,29.69,NNE,22,15.0,-999.0,64,-99.99,,,0.00,Acu-Link.com,2013-06-12 03:12:00,
2013-06-11 22:27:00,75.6,63.0,29.71,NE,45,8.9,-999.0,65,-99.99,,,0.00,Acu-Link.com,2013-06-12 03:27:00,
2013-06-11 22:43:00,75.2,62.6,29.73,NE,45,10.4,-999.0,65,-99.99,,,0.00,Acu-Link.com,2013-06-12 03:43:00,
2013-06-11 22:58:00,74.7,62.6,29.73,NE,45,14.0,-999.0,66,-99.99,,,0.00,Acu-Link.com,2013-06-12 03:58:00,
2013-06-11 23:13:00,73.9,61.8,29.73,ENE,67,13.0,-999.0,66,-99.99,,,0.00,Acu-Link.com,2013-06-12 04:13:00,
2013-06-11 23:28:00,73.2,61.6,29.70,NNE,22,13.0,-999.0,67,-99.99,,,0.00,Acu-Link.com,2013-06-12 04:28:00,
2013-06-11 23:43:00,72.3,61.5,29.69,ENE,67,10.9,-999.0,69,-99.99,,,0.00,Acu-Link.com,2013-06-12 04:43:00,
2013-06-11 23:58:00,72.0,61.3,29.67,NE,45,9.4,-999.0,69,-99.99,,,0.00,Acu-Link.com,2013-06-12 04:58:00,